TimeMST,TemperatureF,Dew PointF,Humidity,Sea Level PressureIn,VisibilityMPH,Wind Direction,Wind SpeedMPH,Gust SpeedMPH,PrecipitationIn,Events,Conditions,WindDirDegrees,DateUTC
12:52 AM,39.9,27.0,60,30.05,10.0,SSW,15.0,-,N/A,,Clear,210,2012-11-21 07:52:00
1:52 AM,39.9,26.1,58,30.03,10.0,SW,12.7,-,N/A,,Clear,220,2012-11-21 08:52:00
2:52 AM,39.0,26.1,60,30.02,10.0,WSW,13.8,-,N/A,,Clear,240,2012-11-21 09:52:00
3:52 AM,36.0,26.1,67,30.02,10.0,WSW,13.8,-,N/A,,Clear,250,2012-11-21 10:52:00
4:52 AM,37.0,26.1,65,30.03,10.0,SW,15.0,-,N/A,,Clear,220,2012-11-21 11:52:00
5:52 AM,34.0,25.0,70,30.07,10.0,South,8.1,-,N/A,,Clear,170,2012-11-21 12:52:00
6:52 AM,35.1,26.1,70,30.07,10.0,SW,12.7,-,N/A,,Clear,230,2012-11-21 13:52:00
7:52 AM,39.0,26.1,60,30.08,10.0,SW,10.4,-,N/A,,Clear,220,2012-11-21 14:52:00
8:52 AM,43.0,27.0,53,30.07,10.0,SSW,11.5,-,N/A,,Clear,200,2012-11-21 15:52:00
9:52 AM,48.9,28.0,44,30.06,10.0,SSW,17.3,-,N/A,,Clear,200,2012-11-21 16:52:00
10:52 AM,54.0,27.0,35,30.04,10.0,SSW,21.9,26.5,N/A,,Clear,210,2012-11-21 17:52:00
11:52 AM,57.0,27.0,32,30.02,10.0,SSW,17.3,-,N/A,,Clear,200,2012-11-21 18:52:00
12:52 PM,60.1,23.0,24,29.98,10.0,SSW,23.0,29.9,N/A,,Clear,210,2012-11-21 19:52:00
1:52 PM,62.1,21.0,21,29.95,10.0,SSW,24.2,34.5,N/A,,Clear,200,2012-11-21 20:52:00
2:52 PM,62.1,21.9,21,29.92,10.0,SSW,28.8,35.7,N/A,,Clear,200,2012-11-21 21:52:00
3:52 PM,60.1,21.0,22,29.94,10.0,SSW,24.2,32.2,N/A,,Clear,200,2012-11-21 22:52:00
4:52 PM,57.0,23.0,27,29.96,10.0,SSW,21.9,28.8,N/A,,Clear,200,2012-11-21 23:52:00
5:52 PM,55.0,23.0,29,29.99,10.0,SSW,20.7,26.5,N/A,,Clear,210,2012-11-22 00:52:00
6:52 PM,48.9,25.0,39,30.04,10.0,SSE,13.8,-,N/A,,Clear,150,2012-11-22 01:52:00
7:52 PM,46.9,26.1,44,30.05,10.0,SSE,11.5,-,N/A,,Clear,150,2012-11-22 02:52:00
8:52 PM,46.9,25.0,42,30.04,10.0,South,17.3,-,N/A,,Clear,190,2012-11-22 03:52:00
9:52 PM,48.0,24.1,39,30.04,10.0,South,15.0,-,N/A,,Clear,190,2012-11-22 04:52:00
10:52 PM,44.1,26.1,49,30.04,10.0,South,9.2,-,N/A,,Clear,190,2012-11-22 05:52:00
11:52 PM,43.0,25.0,49,30.04,10.0,SW,12.7,-,N/A,,Clear,220,2012-11-22 06:52:00